Coventry, United Kingdom

9:58 PM GMT on March 23, 2017 (GMT +0000)
Coventry

Weather History for EGBE - July, 2013

Change the Weather History Date:

Wednesday, July 24, 2013

  Actual Average Record
Temperature  
Mean Temperature 70 °F -  
Max Temperature 78 °F 69 °F 82 °F (1999)
Min Temperature 62 °F 53 °F 48 °F (2004)
Cooling Degree Days 5    
Growing Degree Days 20 (Base 50)    
Moisture  
Dew Point 56 °F    
Average Humidity 59    
Maximum Humidity 83    
Minimum Humidity 42    
Precipitation  
Precipitation 0.00 in - - ()
Sea Level Pressure  
Sea Level Pressure 29.92 in    
Wind  
Wind Speed 7 mph ()    
Max Wind Speed 13 mph    
Max Gust Speed -    
Visibility 6.1 miles    
Events      
Averages and records for this station are not official NWS values.
T = Trace of Precipitation, MM = Missing Value Source: Averaged Metar Reports

Daily Weather History Graph

Daily Weather History Graph

Search for Another Location

Airport or City:

Trip Planner

Search our weather history database for the weather conditions in past years. The results will help you decide how hot, cold, wet, or windy it might be!

Date:

Astronomy

Jul. 24, 2013 Rise Set
Actual Time 5:14 AM BST 9:09 PM BST
Civil Twilight 4:30 AM BST 9:53 PM BST
Nautical Twilight 3:27 AM BST 10:55 PM BST
Astronomical Twilight 1:44 AM BST 12:40 AM BST
Moon 9:37 PM BST (7/24) 7:41 AM BST (7/24)
Length of Visible Light 17h 23m
Length of Day
15h 55m
Waning Gibbous, 96% of the Moon is Illuminated
Jul 24
Waning Gibbous
Jul 29
Last Quarter
Aug 6
New
Aug 14
First Quarter
Aug 21
Full

Hourly Weather History & Observations

Time (BST) Temp. Dew Point Humidity Pressure Visibility Wind Dir Wind Speed Gust Speed Precip Events Conditions
12:20 AM 68.0 °F 60.8 °F 78% 29.92 in 6.2 mi WSW 5.8 mph - N/A   Mostly Cloudy
12:50 AM 68.0 °F 59.0 °F 73% 29.92 in 6.2 mi SW 5.8 mph - N/A   Scattered Clouds
1:20 AM 64.4 °F 59.0 °F 83% 29.92 in 5.6 mi SSW 4.6 mph - N/A   Scattered Clouds
1:50 AM 62.6 °F 57.2 °F 82% 29.92 in 5.6 mi SSW 4.6 mph - N/A   Scattered Clouds
6:50 AM 64.4 °F 57.2 °F 77% 29.95 in 5.6 mi SW 4.6 mph - N/A   Partly Cloudy
7:20 AM 64.4 °F 57.2 °F 77% 29.95 in 5.6 mi SW 5.8 mph - N/A   Partly Cloudy
7:50 AM 66.2 °F 57.2 °F 73% 29.95 in - Variable 2.3 mph - N/A   Clear
8:20 AM 68.0 °F 59.0 °F 73% 29.95 in - SW 5.8 mph - N/A   Clear
8:50 AM 68.0 °F 57.2 °F 68% 29.95 in - SW 6.9 mph - N/A   Clear
9:20 AM 68.0 °F 57.2 °F 68% 29.95 in - WSW 6.9 mph - N/A   Clear
9:50 AM 68.0 °F 57.2 °F 68% 29.95 in - SW 9.2 mph - N/A   Clear
10:20 AM 68.0 °F 57.2 °F 68% 29.95 in 6.2 mi SSW 9.2 mph - N/A   Partly Cloudy
10:50 AM 69.8 °F 59.0 °F 68% 29.95 in 6.2 mi SW 9.2 mph - N/A   Scattered Clouds
11:20 AM 71.6 °F 57.2 °F 60% 29.95 in 6.2 mi SW 11.5 mph - N/A   Scattered Clouds
11:50 AM 73.4 °F 57.2 °F 57% 29.95 in 6.2 mi SW 11.5 mph - N/A   Scattered Clouds
12:20 PM 73.4 °F 57.2 °F 57% 29.95 in 6.2 mi WSW 11.5 mph - N/A   Scattered Clouds
12:50 PM 75.2 °F 55.4 °F 50% 29.95 in 6.2 mi SW 11.5 mph - N/A   Scattered Clouds
1:20 PM 75.2 °F 55.4 °F 50% 29.95 in 6.2 mi WSW 10.4 mph - N/A   Scattered Clouds
1:50 PM 77.0 °F 53.6 °F 44% 29.92 in 6.2 mi SW 10.4 mph - N/A   Scattered Clouds
2:20 PM 77.0 °F 53.6 °F 44% 29.92 in 6.2 mi SSW 9.2 mph - N/A   Scattered Clouds
2:50 PM 77.0 °F 53.6 °F 44% 29.92 in 6.2 mi SW 12.7 mph - N/A   Partly Cloudy
3:20 PM 78.8 °F 53.6 °F 42% 29.92 in 6.2 mi SW 9.2 mph - N/A   Scattered Clouds
3:50 PM 78.8 °F 53.6 °F 42% 29.92 in 6.2 mi SW 10.4 mph - N/A   Scattered Clouds
4:20 PM 77.0 °F 53.6 °F 44% 29.92 in 6.2 mi SW 5.8 mph - N/A   Scattered Clouds
4:50 PM 78.8 °F 53.6 °F 42% 29.92 in 6.2 mi South 6.9 mph - N/A   Scattered Clouds
5:20 PM 78.8 °F 53.6 °F 42% 29.89 in 6.2 mi SW 9.2 mph - N/A   Scattered Clouds
5:50 PM 77.0 °F 53.6 °F 44% 29.89 in 6.2 mi SSW 9.2 mph - N/A   Scattered Clouds
6:20 PM 78.8 °F 53.6 °F 42% 29.89 in 6.2 mi SW 9.2 mph - N/A   Scattered Clouds
6:50 PM 77.0 °F 53.6 °F 44% 29.89 in 6.2 mi SSW 8.1 mph - N/A   Scattered Clouds
7:20 PM 77.0 °F 53.6 °F 44% 29.89 in 6.2 mi SW 10.4 mph - N/A   Scattered Clouds
7:50 PM 75.2 °F 55.4 °F 50% 29.89 in 6.2 mi SSW 8.1 mph - N/A   Partly Cloudy
8:20 PM 73.4 °F 55.4 °F 53% 29.89 in 6.2 mi SSW 8.1 mph - N/A   Partly Cloudy
8:50 PM 69.8 °F 55.4 °F 60% 29.89 in - South 5.8 mph - N/A   Clear
9:20 PM 68.0 °F 55.4 °F 64% 29.92 in - South 5.8 mph - N/A   Clear
10:20 PM 66.2 °F 55.4 °F 68% 29.92 in - South 4.6 mph - N/A   Clear
10:50 PM 66.2 °F 55.4 °F 68% 29.92 in 6.2 mi South 6.9 mph - N/A   Partly Cloudy
11:20 PM 66.2 °F 55.4 °F 68% 29.92 in 6.2 mi South 6.9 mph - N/A   Partly Cloudy
11:50 PM 64.4 °F 55.4 °F 73% 29.92 in 6.2 mi South 5.8 mph - N/A   Partly Cloudy